| time (UTC) | temp F | wind direction | speed MPH | gust MPH | rain 1hr in | rain 24hr in | rain mn in | humidity % | barometer mb |
| 20260831174852 | 67 | 223 | 5.0 | 11.0 | 0.00 | 0.08 | 0.08 | 75 | 1013.5 |
| 20260831173853 | 68 | 230 | 5.0 | 12.0 | 0.00 | 0.08 | 0.08 | 74 | 1013.4 |
| 20260831172853 | 69 | 218 | 5.0 | 13.0 | 0.00 | 0.08 | 0.08 | 73 | 1013.2 |
| 20260831171852 | 68 | 223 | 6.0 | 12.0 | 0.00 | 0.08 | 0.08 | 73 | 1013.2 |
| 20260831170852 | 68 | 225 | 9.0 | 20.0 | 0.00 | 0.08 | 0.08 | 72 | 1013.0 |
| 20260831165853 | 69 | 235 | 8.0 | 19.0 | 0.00 | 0.08 | 0.08 | 70 | 1013.0 |
| 20260831164852 | 69 | 230 | 8.0 | 18.0 | 0.00 | 0.08 | 0.08 | 71 | 1012.8 |
| 20260831163854 | 69 | 235 | 7.0 | 16.0 | 0.00 | 0.08 | 0.08 | 70 | 1012.8 |
| 20260831162853 | 69 | 237 | 8.0 | 17.0 | 0.00 | 0.08 | 0.08 | 72 | 1012.8 |
| 20260831161852 | 69 | 232 | 8.0 | 19.0 | 0.00 | 0.08 | 0.08 | 72 | 1012.7 |
| 20260831160852 | 69 | 233 | 8.0 | 18.0 | 0.00 | 0.08 | 0.08 | 71 | 1012.4 |
| 20260831155853 | 69 | 229 | 8.0 | 17.0 | 0.00 | 0.08 | 0.08 | 70 | 1012.4 |
| 20260831154852 | 69 | 231 | 9.0 | 18.0 | 0.00 | 0.08 | 0.08 | 69 | 1012.3 |
| 20260831153853 | 70 | 223 | 10.0 | 22.0 | 0.00 | 0.08 | 0.08 | 68 | 1012.1 |
| 20260831151853 | 69 | 231 | 11.0 | 21.0 | 0.00 | 0.08 | 0.08 | 69 | 1011.9 |
| 20260831150853 | 70 | 227 | 9.0 | 20.0 | 0.00 | 0.08 | 0.08 | 67 | 1011.8 |
| 20260831145853 | 70 | 238 | 6.0 | 14.0 | 0.00 | 0.08 | 0.08 | 70 | 1011.8 |
| 20260831144852 | 70 | 237 | 8.0 | 17.0 | 0.00 | 0.08 | 0.08 | 70 | 1011.7 |
| 20260831141853 | 69 | 241 | 9.0 | 18.0 | 0.00 | 0.08 | 0.08 | 72 | 1011.2 |
| 20260831140853 | 69 | 234 | 9.0 | 21.0 | 0.00 | 0.08 | 0.08 | 75 | 1011.0 |
| 20260831135853 | 69 | 223 | 9.0 | 18.0 | 0.00 | 0.08 | 0.08 | 75 | 1011.0 |
| 20260831134853 | 68 | 216 | 10.0 | 21.0 | 0.00 | 0.08 | 0.08 | 77 | 1010.9 |
| 20260831133853 | 68 | 223 | 9.0 | 19.0 | 0.00 | 0.08 | 0.08 | 79 | 1010.8 |
| 20260831132853 | 68 | 228 | 9.0 | 20.0 | 0.01 | 0.08 | 0.08 | 75 | 1010.8 |
| 20260831131853 | 68 | 202 | 10.0 | 20.0 | 0.01 | 0.08 | 0.08 | 76 | 1010.3 |
| 20260831130854 | 68 | 209 | 8.0 | 17.0 | 0.01 | 0.08 | 0.08 | 80 | 1010.3 |
| 20260831125853 | 66 | 219 | 7.0 | 17.0 | 0.01 | 0.08 | 0.08 | 83 | 1010.3 |
| 20260831124853 | 65 | 219 | 4.0 | 12.0 | 0.01 | 0.08 | 0.08 | 87 | 1010.3 |
| 20260831123853 | 64 | 210 | 5.0 | 10.0 | 0.01 | 0.08 | 0.08 | 87 | 1010.2 |
| 20260831122854 | 64 | 226 | 6.0 | 11.0 | 0.00 | 0.07 | 0.07 | 87 | 1010.2 |
| 20260831121855 | 64 | 230 | 7.0 | 17.0 | 0.00 | 0.07 | 0.07 | 85 | 1009.9 |
| 20260831120853 | 65 | 234 | 7.0 | 15.0 | 0.00 | 0.07 | 0.07 | 84 | 1009.6 |
| 20260831115853 | 66 | 191 | 11.0 | 22.0 | 0.00 | 0.07 | 0.07 | 83 | 1009.6 |
| 20260831114853 | 66 | 190 | 12.0 | 21.0 | 0.00 | 0.07 | 0.07 | 83 | 1009.8 |
| 20260831113854 | 67 | 184 | 13.0 | 26.0 | 0.00 | 0.07 | 0.07 | 83 | 1009.7 |
| 20260831112853 | 67 | 187 | 10.0 | 18.0 | 0.00 | 0.07 | 0.07 | 86 | 1009.7 |
| 20260831111853 | 66 | 181 | 12.0 | 20.0 | 0.00 | 0.07 | 0.07 | 87 | 1009.7 |
| 20260831110854 | 66 | 188 | 10.0 | 18.0 | 0.02 | 0.07 | 0.07 | 87 | 1009.7 |
| 20260831105854 | 65 | 189 | 7.0 | 14.0 | 0.02 | 0.07 | 0.07 | 89 | 1009.7 |
| 20260831104854 | 64 | 184 | 9.0 | 17.0 | 0.02 | 0.07 | 0.07 | 89 | 1009.6 |
| 20260831103853 | 64 | 189 | 7.0 | 16.0 | 0.02 | 0.07 | 0.07 | 88 | 1009.6 |
| 20260831102854 | 64 | 200 | 6.0 | 12.0 | 0.02 | 0.07 | 0.07 | 89 | 1009.6 |
| 20260831101854 | 65 | 208 | 6.0 | 12.0 | 0.02 | 0.07 | 0.07 | 86 | 1009.6 |
| 20260831100854 | 65 | 193 | 10.0 | 19.0 | 0.00 | 0.06 | 0.06 | 83 | 1009.3 |
| 20260831095854 | 66 | 190 | 13.0 | 30.0 | 0.00 | 0.06 | 0.06 | 80 | 1009.2 |
| 20260831094855 | 68 | 183 | 12.0 | 23.0 | 0.00 | 0.06 | 0.06 | 80 | 1009.2 |
| 20260831093854 | 66 | 184 | 13.0 | 27.0 | 0.00 | 0.06 | 0.06 | 82 | 1009.2 |
| 20260831091853 | 67 | 186 | 12.0 | 23.0 | 0.00 | 0.06 | 0.06 | 81 | 1009.1 |
| 20260831090854 | 66 | 185 | 13.0 | 24.0 | 0.00 | 0.06 | 0.06 | 81 | 1009.0 |
| 20260831085854 | 66 | 185 | 17.0 | 28.0 | 0.00 | 0.06 | 0.06 | 80 | 1009.0 |
| 20260831084854 | 66 | 183 | 14.0 | 25.0 | 0.00 | 0.06 | 0.06 | 82 | 1008.7 |
| 20260831083853 | 66 | 179 | 15.0 | 27.0 | 0.00 | 0.06 | 0.06 | 83 | 1008.7 |
| 20260831082854 | 66 | 179 | 12.0 | 21.0 | 0.00 | 0.06 | 0.06 | 84 | 1008.7 |
| 20260831081854 | 66 | 175 | 13.0 | 26.0 | 0.00 | 0.06 | 0.06 | 84 | 1008.6 |
| 20260831080853 | 66 | 175 | 13.0 | 22.0 | 0.00 | 0.06 | 0.06 | 85 | 1008.7 |
| 20260831075854 | 66 | 173 | 14.0 | 25.0 | 0.00 | 0.06 | 0.06 | 84 | 1008.7 |
| 20260831074854 | 65 | 175 | 10.0 | 17.0 | 0.00 | 0.06 | 0.06 | 86 | 1008.7 |
| 20260831073854 | 65 | 173 | 10.0 | 17.0 | 0.00 | 0.06 | 0.06 | 87 | 1008.6 |
| 20260831072855 | 64 | 175 | 10.0 | 19.0 | 0.00 | 0.06 | 0.06 | 87 | 1008.5 |
| 20260831071854 | 64 | 175 | 10.0 | 17.0 | 0.00 | 0.06 | 0.06 | 88 | 1008.8 |
| 20260831070854 | 64 | 176 | 11.0 | 18.0 | 0.00 | 0.06 | 0.06 | 87 | 1008.8 |
| 20260831065855 | 64 | 170 | 11.0 | 18.0 | 0.00 | 0.06 | 0.06 | 88 | 1008.8 |
| 20260831064854 | 64 | 176 | 11.0 | 19.0 | 0.00 | 0.06 | 0.06 | 88 | 1008.8 |
| 20260831063854 | 63 | 174 | 10.0 | 19.0 | 0.00 | 0.06 | 0.06 | 88 | 1008.8 |
| 20260831062854 | 63 | 174 | 9.0 | 16.0 | 0.00 | 0.06 | 0.06 | 89 | 1008.8 |
| 20260831061854 | 62 | 172 | 8.0 | 14.0 | 0.00 | 0.06 | 0.06 | 90 | 1008.8 |
| 20260831060854 | 62 | 169 | 8.0 | 17.0 | 0.00 | 0.06 | 0.06 | 91 | 1008.7 |
| 20260831055855 | 62 | 169 | 8.0 | 15.0 | 0.00 | 0.06 | 0.06 | 92 | 1008.7 |
| 20260831054854 | 62 | 169 | 8.0 | 13.0 | 0.00 | 0.06 | 0.06 | 92 | 1008.7 |
| 20260831052854 | 61 | 166 | 8.0 | 13.0 | 0.00 | 0.06 | 0.06 | 93 | 1008.4 |
| 20260831051855 | 61 | 169 | 7.0 | 13.0 | 0.00 | 0.06 | 0.06 | 94 | 1008.6 |
| 20260831050855 | 60 | 165 | 7.0 | 13.0 | 0.00 | 0.06 | 0.06 | 94 | 1008.6 |
| 20260831045855 | 60 | 168 | 7.0 | 11.0 | 0.00 | 0.06 | 0.06 | 94 | 1008.6 |
| 20260831044855 | 60 | 165 | 6.0 | 11.0 | 0.00 | 0.06 | 0.06 | 95 | 1008.5 |
| 20260831043854 | 60 | 165 | 5.0 | 9.0 | 0.00 | 0.06 | 0.06 | 94 | 1008.3 |
| 20260831041854 | 60 | 166 | 6.0 | 10.0 | 0.00 | 0.06 | 0.06 | 95 | 1008.4 |
| 20260831040854 | 61 | 163 | 6.0 | 9.0 | 0.00 | 0.06 | 0.06 | 94 | 1008.6 |
| 20260831035854 | 61 | 168 | 7.0 | 11.0 | 0.00 | 0.06 | 0.06 | 94 | 1008.6 |
| 20260831034854 | 61 | 171 | 7.0 | 12.0 | 0.00 | 0.06 | 0.06 | 94 | 1008.7 |
| 20260831032855 | 61 | 173 | 8.0 | 14.0 | 0.00 | 0.06 | 0.06 | 95 | 1008.7 |
| 20260831031855 | 61 | 168 | 7.0 | 13.0 | 0.00 | 0.06 | 0.06 | 95 | 1008.7 |
| 20260831030855 | 60 | 168 | 6.0 | 10.0 | 0.00 | 0.06 | 0.06 | 96 | 1008.7 |
| 20260831025855 | 60 | 164 | 5.0 | 9.0 | 0.00 | 0.06 | 0.06 | 96 | 1008.7 |
| 20260831023855 | 60 | 161 | 5.0 | 8.0 | 0.00 | 0.06 | 0.06 | 95 | 1008.6 |
| 20260831022855 | 61 | 166 | 5.0 | 8.0 | 0.00 | 0.06 | 0.06 | 95 | 1008.6 |
| 20260831021855 | 61 | 165 | 5.0 | 9.0 | 0.00 | 0.06 | 0.06 | 95 | 1008.6 |
| 20260831020854 | 61 | 165 | 4.0 | 8.0 | 0.00 | 0.06 | 0.06 | 95 | 1008.4 |
| 20260831015855 | 62 | 167 | 4.0 | 8.0 | 0.00 | 0.06 | 0.06 | 95 | 1008.4 |
| 20260831014855 | 62 | 168 | 5.0 | 10.0 | 0.06 | 0.06 | 0.06 | 95 | 1008.6 |
| 20260831013855 | 62 | 161 | 3.0 | 6.0 | 0.06 | 0.06 | 0.06 | 94 | 1008.7 |
| 20260831011855 | 63 | 174 | 6.0 | 10.0 | 0.06 | 0.06 | 0.06 | 94 | 1008.9 |
| 20260831010854 | 63 | 184 | 6.0 | 11.0 | 0.06 | 0.06 | 0.06 | 94 | 1008.9 |
| 20260831005855 | 63 | 174 | 7.0 | 14.0 | 0.06 | 0.06 | 0.06 | 93 | 1008.9 |
| 20260831004855 | 63 | 166 | 4.0 | 6.0 | 0.00 | 0.00 | 0.00 | 94 | 1008.7 |
| 20260831002855 | 62 | 157 | 4.0 | 7.0 | 0.00 | 0.00 | 0.00 | 95 | 1008.7 |
| 20260830235855 | 62 | 147 | 3.0 | 6.0 | 0.00 | 0.00 | 0.00 | 94 | 1008.8 |
| 20260830234855 | 62 | 140 | 3.0 | 6.0 | 0.00 | 0.00 | 0.00 | 94 | 1008.9 |
| 20260830232856 | 63 | 148 | 3.0 | 5.0 | 0.00 | 0.00 | 0.00 | 93 | 1009.2 |
| 20260830231855 | 63 | 154 | 3.0 | 6.0 | 0.00 | 0.00 | 0.00 | 93 | 1009.2 |
| 20260830225856 | 63 | 156 | 4.0 | 7.0 | 0.00 | 0.00 | 0.00 | 92 | 1009.2 |
| 20260830224855 | 63 | 157 | 4.0 | 7.0 | 0.00 | 0.00 | 0.00 | 92 | 1009.2 |
| 20260830223857 | 63 | 159 | 5.0 | 8.0 | 0.00 | 0.00 | 0.00 | 92 | 1009.3 |
| 20260830222855 | 63 | 158 | 4.0 | 7.0 | 0.00 | 0.00 | 0.00 | 93 | 1009.3 |
| 20260830221855 | 63 | 154 | 4.0 | 8.0 | 0.00 | 0.00 | 0.00 | 93 | 1009.3 |
| 20260830220855 | 63 | 146 | 4.0 | 8.0 | 0.00 | 0.00 | 0.00 | 94 | 1009.4 |
| 20260830215900 | 63 | 146 | 3.0 | 8.0 | 0.00 | 0.00 | 0.00 | 94 | 1009.4 |
| 20260830214855 | 63 | 155 | 2.0 | 4.0 | 0.00 | 0.00 | 0.00 | 94 | 1009.8 |
| 20260830213855 | 63 | 156 | 1.0 | 3.0 | 0.00 | 0.00 | 0.00 | 93 | 1009.7 |
| 20260830211855 | 63 | 155 | 2.0 | 4.0 | 0.00 | 0.00 | 0.00 | 92 | 1009.8 |
| 20260830205855 | 64 | 153 | 4.0 | 7.0 | 0.00 | 0.00 | 0.00 | 92 | 1010.0 |
| 20260830204855 | 64 | 157 | 4.0 | 6.0 | 0.00 | 0.00 | 0.00 | 91 | 1010.0 |
| 20260830203855 | 64 | 152 | 3.0 | 6.0 | 0.00 | 0.00 | 0.00 | 90 | 1009.9 |
| 20260830202857 | 64 | 150 | 4.0 | 6.0 | 0.00 | 0.00 | 0.00 | 90 | 1009.9 |
| 20260830201856 | 65 | 144 | 2.0 | 4.0 | 0.00 | 0.00 | 0.00 | 89 | 1010.1 |
| 20260830194856 | 66 | 157 | 4.0 | 7.0 | 0.00 | 0.00 | 0.00 | 87 | 1010.3 |
| 20260830192856 | 67 | 174 | 7.0 | 12.0 | 0.00 | 0.00 | 0.00 | 85 | 1010.4 |
| 20260830190856 | 67 | 156 | 2.0 | 5.0 | 0.00 | 0.00 | 0.00 | 83 | 1010.3 |
| 20260830185856 | 67 | 154 | 2.0 | 4.0 | 0.00 | 0.00 | 0.00 | 82 | 1010.3 |
| 20260830184856 | 67 | 154 | 2.0 | 4.0 | 0.00 | 0.00 | 0.00 | 81 | 1010.3 |
| 20260830183855 | 67 | 154 | 1.0 | 3.0 | 0.00 | 0.00 | 0.00 | 80 | 1010.3 |
| 20260830182856 | 68 | 154 | 2.0 | 4.0 | 0.00 | 0.00 | 0.00 | 79 | 1010.3 |
| 20260830181856 | 68 | 158 | 2.0 | 5.0 | 0.00 | 0.00 | 0.00 | 78 | 1010.4 |
| 20260830180855 | 69 | 162 | 4.0 | 7.0 | 0.00 | 0.00 | 0.00 | 77 | 1010.5 |
| 20260830175856 | 69 | 163 | 6.0 | 10.0 | 0.00 | 0.01 | 0.00 | 76 | 1010.5 |